CW5920 Weather Reports


time (UTC)temp
C
wind
direction
speed
KPH
gust
KPH
rain 1hr
cm
rain 24hr
cm
rain mn
cm
humidity
%
barometer
mb
20260906231015 36 68 12.9 24.1 0.00 0.00 0.00 40 1010.6
20260906230015 36 90 6.4 14.5 0.00 0.00 0.00 40 1010.7
20260906225015 36 68 9.7 16.1 0.00 0.00 0.00 40 1010.7
20260906224015 36 90 12.9 20.9 0.00 0.00 0.00 40 1010.7
20260906223015 36 68 9.7 17.7 0.00 0.00 0.00 41 1010.7
20260906222016 36 90 8.0 19.3 0.00 0.00 0.00 42 1010.7
20260906221015 36 68 11.3 17.7 0.00 0.00 0.00 41 1010.8
20260906220015 36 45 3.2 12.9 0.00 0.00 0.00 42 1010.8
20260906215015 36 68 8.0 16.1 0.00 0.00 0.00 42 1011.0
20260906214015 37 45 11.3 25.7 0.00 0.00 0.00 41 1011.1
20260906213035 36 23 8.0 17.7 0.00 0.00 0.00 42 1011.3
20260906212015 37 23 11.3 25.7 0.00 0.00 0.00 41 1011.3
20260906211035 37 113 8.0 19.3 0.00 0.00 0.00 41 1011.4
20260906210015 37 90 6.4 16.1 0.00 0.00 0.00 40 1011.7
20260906205015 37 113 14.5 24.1 0.00 0.00 0.00 41 1011.6
20260906204015 37 90 9.7 22.5 0.00 0.00 0.00 41 1011.6
20260906203035 37 68 4.8 14.5 0.00 0.00 0.00 41 1011.8
20260906202015 37 90 8.0 17.7 0.00 0.00 0.00 42 1012.0
20260906201037 37 68 11.3 24.1 0.00 0.00 0.00 43 1012.1
20260906200015 36 90 8.0 17.7 0.00 0.00 0.00 44 1012.1
20260906195017 36 23 4.8 17.7 0.00 0.00 0.00 44 1012.2
20260906194015 36 68 8.0 16.1 0.00 0.00 0.00 43 1012.4
20260906193016 37 113 4.8 19.3 0.00 0.00 0.00 43 1012.5
20260906192017 37 90 9.7 19.3 0.00 0.00 0.00 42 1012.7
20260906191015 37 113 9.7 17.7 0.00 0.00 0.00 44 1012.7
20260906190017 37 90 11.3 19.3 0.00 0.00 0.00 43 1012.9
20260906185036 37 113 6.4 19.3 0.00 0.00 0.00 44 1012.9
20260906184017 36 90 11.3 20.9 0.00 0.00 0.00 43 1013.1
20260906183037 36 23 3.2 12.9 0.00 0.00 0.00 46 1013.2
20260906182017 36 68 11.3 19.3 0.00 0.00 0.00 46 1013.4
20260906181017 36 113 1.6 12.9 0.00 0.00 0.00 47 1013.4
20260906180017 36 68 9.7 22.5 0.00 0.00 0.00 48 1013.6
20260906175057 35 23 8.0 19.3 0.00 0.00 0.00 48 1013.6
20260906174037 35 68 4.8 17.7 0.00 0.00 0.00 49 1013.9
20260906173017 35 45 6.4 14.5 0.00 0.00 0.00 49 1014.1
20260906172037 35 90 3.2 14.5 0.00 0.00 0.00 49 1014.3
20260906171017 35 90 4.8 17.7 0.00 0.00 0.00 50 1014.5
20260906170015 35 23 6.4 14.5 0.00 0.00 0.00 52 1014.7
20260906165017 34 90 6.4 14.5 0.00 0.00 0.00 53 1014.7
20260906164015 34 113 4.8 12.9 0.00 0.00 0.00 53 1014.7
20260906163017 33 0 3.2 11.3 0.00 0.00 0.00 54 1014.8
20260906162017 33 45 4.8 14.5 0.00 0.00 0.00 55 1014.8
20260906161037 33 0 1.6 16.1 0.00 0.00 0.00 59 1014.7
20260906160017 33 68 4.8 12.9 0.00 0.00 0.00 59 1014.5
20260906155017 32 90 1.6 11.3 0.00 0.00 0.00 61 1014.6
20260906154017 32 0 3.2 8.0 0.00 0.00 0.00 62 1014.7
20260906153037 32 113 1.6 11.3 0.00 0.00 0.00 63 1014.6
20260906152037 32 90 1.6 6.4 0.00 0.00 0.00 64 1014.6
20260906151017 31 113 1.6 9.7 0.00 0.00 0.00 66 1014.5
20260906150017 31 113 1.6 6.4 0.00 0.00 0.00 66 1014.3
20260906145015 30 113 1.6 6.4 0.00 0.00 0.00 68 1014.3
20260906144037 30 0.0 3.2 0.00 0.00 0.00 70 1014.4
20260906143017 30 113 1.6 6.4 0.00 0.00 0.00 72 1014.3
20260906142037 28 0.0 0.0 0.00 0.00 0.00 74 1014.2
20260906141017 28 113 1.6 6.4 0.00 0.00 0.00 76 1014.3
20260906140017 28 0.0 4.8 0.00 0.00 0.00 78 1014.3
20260906135017 27 90 1.6 6.4 0.00 0.00 0.00 80 1014.1
20260906134017 27 90 1.6 4.8 0.00 0.00 0.00 81 1014.1
20260906133057 26 158 1.6 6.4 0.00 0.00 0.00 83 1014.1
20260906132017 26 158 1.6 4.8 0.00 0.00 0.00 85 1014.0
20260906131017 25 158 1.6 6.4 0.00 0.00 0.00 86 1013.9
20260906130037 25 0.0 3.2 0.00 0.00 0.00 87 1014.0
20260906125017 25 0.0 0.0 0.00 0.00 0.00 88 1013.9
20260906124017 24 0.0 0.0 0.00 0.00 0.00 88 1013.8
20260906123017 24 0.0 3.2 0.00 0.00 0.00 88 1013.8
20260906122017 24 0.0 1.6 0.00 0.00 0.00 88 1013.7
20260906121017 24 0.0 0.0 0.00 0.00 0.00 87 1013.6
20260906120017 24 0.0 0.0 0.00 0.00 0.00 87 1013.4
20260906115037 24 0.0 0.0 0.00 0.00 0.00 86 1013.3
20260906114017 24 0.0 0.0 0.00 0.00 0.00 86 1013.2
20260906113017 24 0.0 0.0 0.00 0.00 0.00 86 1013.4
20260906112017 25 0.0 0.0 0.00 0.00 0.00 85 1013.2
20260906111017 25 0.0 0.0 0.00 0.00 0.00 85 1013.2
20260906110017 25 0.0 0.0 0.00 0.00 0.00 84 1013.1
20260906105017 25 0.0 0.0 0.00 0.00 0.00 84 1013.0
20260906104037 25 0.0 1.6 0.00 0.00 0.00 82 1013.0
20260906103017 25 0.0 0.0 0.00 0.00 0.00 82 1012.9
20260906102017 25 0.0 0.0 0.00 0.00 0.00 81 1012.8
20260906101037 25 0.0 0.0 0.00 0.00 0.00 81 1012.8
20260906100017 26 0.0 0.0 0.00 0.00 0.00 80 1012.7
20260906095017 26 0.0 0.0 0.00 0.00 0.00 80 1012.6
20260906094017 26 0.0 0.0 0.00 0.00 0.00 80 1012.5
20260906093057 26 0.0 0.0 0.00 0.00 0.00 79 1012.5
20260906092017 26 0.0 0.0 0.00 0.00 0.00 79 1012.4
20260906091017 26 0.0 0.0 0.00 0.00 0.00 78 1012.3
20260906090017 26 0.0 0.0 0.00 0.00 0.00 78 1012.4
20260906085016 26 0.0 0.0 0.00 0.00 0.00 78 1012.4
20260906084016 27 0.0 1.6 0.00 0.00 0.00 77 1012.4
20260906083016 27 0.0 1.6 0.00 0.00 0.00 77 1012.3
20260906082036 27 0.0 1.6 0.00 0.00 0.00 77 1012.4
20260906081016 27 0.0 4.8 0.00 0.00 0.00 77 1012.5
20260906080016 27 0.0 0.0 0.00 0.00 0.00 76 1012.4
20260906075016 27 0.0 3.2 0.00 0.00 0.00 76 1012.5
20260906074016 27 158 3.2 8.0 0.00 0.00 0.00 76 1012.5
20260906073016 27 135 1.6 4.8 0.00 0.00 0.00 75 1012.7
20260906072016 27 135 1.6 8.0 0.00 0.00 0.00 75 1012.7
20260906071036 27 158 4.8 9.7 0.00 0.00 0.00 75 1012.8
20260906070016 27 158 4.8 16.1 0.00 0.00 0.00 74 1012.7
20260906065036 28 158 1.6 6.4 0.00 0.00 0.00 74 1012.9
20260906064016 28 158 6.4 11.3 0.00 0.00 0.00 74 1013.1
20260906063016 28 158 6.4 12.9 0.00 0.00 0.00 73 1013.1
20260906062016 28 158 1.6 4.8 0.00 0.00 0.00 73 1013.2
20260906061036 28 158 1.6 6.4 0.00 0.00 0.00 73 1013.2
20260906060016 28 0.0 1.6 0.00 0.00 0.00 73 1013.1
20260906055016 28 158 4.8 9.7 0.00 0.00 0.00 73 1013.0
20260906054016 28 158 3.2 11.3 0.00 0.00 0.00 73 1012.9
20260906053016 28 135 1.6 4.8 0.00 0.00 0.00 73 1012.9
20260906052016 28 0.0 1.6 0.00 0.00 0.00 72 1012.9
20260906051016 28 0.0 4.8 0.00 0.00 0.00 72 1013.0
20260906050016 28 135 3.2 8.0 0.00 0.00 0.00 71 1013.1
20260906045016 28 135 1.6 6.4 0.00 0.00 0.00 71 1013.0
20260906044016 29 135 3.2 8.0 0.00 0.00 0.00 70 1012.9
20260906043016 29 113 6.4 14.5 0.00 0.00 0.00 70 1012.8
20260906042016 29 135 11.3 19.3 0.00 0.00 0.00 69 1012.7
20260906041016 29 135 6.4 14.5 0.00 0.00 0.00 69 1012.7
20260906040016 29 135 6.4 16.1 0.00 0.00 0.00 70 1012.8
20260906035016 29 135 3.2 6.4 0.00 0.00 0.00 70 1012.8
20260906034016 29 113 4.8 9.7 0.00 0.00 0.00 70 1012.8
20260906033016 30 113 6.4 11.3 0.00 0.00 0.00 69 1012.8
20260906032056 30 113 4.8 11.3 0.00 0.00 0.00 69 1013.0
20260906031016 30 113 4.8 11.3 0.00 0.00 0.00 69 1012.8
20260906030016 30 113 6.4 12.9 0.00 0.00 0.00 68 1012.6
20260906025016 30 90 6.4 12.9 0.00 0.00 0.00 67 1012.6
20260906024016 30 113 8.0 16.1 0.00 0.00 0.00 66 1012.4
20260906023016 30 113 6.4 12.9 0.00 0.00 0.00 65 1012.1
20260906022016 31 113 9.7 16.1 0.00 0.00 0.00 64 1012.0
20260906021016 31 113 8.0 16.1 0.00 0.00 0.00 63 1011.9
20260906020016 31 113 9.7 16.1 0.00 0.00 0.00 61 1011.6
20260906015016 31 113 14.5 22.5 0.00 0.00 0.00 60 1011.6
20260906014036 32 90 11.3 16.1 0.00 0.00 0.00 57 1011.4
20260906013036 32 90 16.1 22.5 0.00 0.00 0.00 54 1011.2
20260906012016 33 113 4.8 19.3 0.00 0.00 0.00 50 1010.9
20260906011016 33 113 3.2 11.3 0.00 0.00 0.00 49 1010.8
20260906010016 34 113 4.8 11.3 0.00 0.00 0.00 48 1010.7
20260906005016 34 113 8.0 12.9 0.00 0.00 0.00 47 1010.8
20260906004016 35 113 9.7 17.7 0.00 0.00 0.00 46 1010.8
20260906003036 35 113 14.5 22.5 0.00 0.00 0.00 45 1010.7
20260906002016 35 113 11.3 19.3 0.00 0.00 0.00 44 1010.7
20260906001016 36 113 9.7 14.5 0.00 0.00 0.00 42 1010.6
20260906000016 36 113 4.8 12.9 0.00 0.00 0.00 41 1010.5
20260905235016 36 68 4.8 9.7 0.00 0.00 0.00 41 1010.5
20260905234016 36 90 6.4 14.5 0.00 0.00 0.00 41 1010.4
20260905233016 36 68 4.8 9.7 0.00 0.00 0.00 41 1010.4
20260905232016 36 135 4.8 14.5 0.00 0.00 0.00 41 1010.4